When you browse on this site, cookies collect data to enhance your experience and personalize the content and advertising you see.
Visit our Privacy Policy to learn more. By continuing to use the site, you agree to this use of cookies and data.
  • In Hungary
  • List of Countries
  • For 7 days
  • Water Temperature
  • Weather Map
  • News
  • Weather Widgets
  • user-avatar
    Login

    Hourly Weather Roven Mosty

    Today, 20 January, Monday

    Time Temperature Precipitation Wind Pressure Humidity
    00:00 0°C° 0 mm 5 mps 746 mmHg 89%
    01:00 -1°C° 0 mm 5 mps 746 mmHg 89%
    02:00 -1°C° 0 mm 5 mps 746 mmHg 91%
    03:00 -1°C° 0 mm 5 mps 746 mmHg 90%
    04:00 -1°C° 0 mm 5 mps 746 mmHg 89%
    05:00 -1°C° 0 mm 5 mps 746 mmHg 88%
    06:00 -1°C° 0 mm 5 mps 746 mmHg 89%
    07:00 -1°C° 0 mm 5 mps 746 mmHg 90%
    08:00 -1°C° 0 mm 5 mps 746 mmHg 89%
    09:00 -1°C° 0 mm 5 mps 746 mmHg 91%
    10:00 -1°C° 0 mm 5 mps 746 mmHg 92%
    11:00 -2°C° 0 mm 5 mps 746 mmHg 93%
    12:00 -1°C° 0 mm 5 mps 746 mmHg 91%
    13:00 -1°C° 0 mm 5 mps 746 mmHg 89%
    14:00 -1°C° 0 mm 5 mps 747 mmHg 87%
    15:00 -1°C° 0 mm 5 mps 746 mmHg 85%
    16:00 -1°C° 0 mm 5 mps 746 mmHg 83%
    17:00 -1°C° 0 mm 5 mps 745 mmHg 81%
    18:00 -1°C° 0 mm 5 mps 745 mmHg 81%
    19:00 -1°C° 0 mm 5 mps 744 mmHg 82%
    20:00 -2°C° 0 mm 5 mps 744 mmHg 82%
    21:00 -2°C° 0 mm 5 mps 743 mmHg 83%
    22:00 -2°C° 0 mm 5 mps 743 mmHg 83%
    23:00 -2°C° 0 mm 5 mps 742 mmHg 84%

    Tomorrow, 21 January, Tuesday

    Time Temperature Precipitation Wind Pressure Humidity
    00:00 -2°C° 0.1 mm 5 mps 741 mmHg 85%
    01:00 -2°C° 0.1 mm 5 mps 741 mmHg 86%
    02:00 -2°C° 0.1 mm 5 mps 740 mmHg 87%
    03:00 -2°C° 0.1 mm 6 mps 739 mmHg 88%
    04:00 -2°C° 0.1 mm 6 mps 738 mmHg 89%
    05:00 -1°C° 0.1 mm 6 mps 737 mmHg 90%
    06:00 -1°C° 0.1 mm 6 mps 737 mmHg 90%
    07:00 -1°C° 0.1 mm 6 mps 736 mmHg 90%
    08:00 +1°C° 0.1 mm 6 mps 735 mmHg 90%
    09:00 +1°C° 0.1 mm 6 mps 735 mmHg 91%
    10:00 +2°C° 0.1 mm 6 mps 734 mmHg 91%
    11:00 +2°C° 0.1 mm 6 mps 734 mmHg 91%
    12:00 +2°C° 0.2 mm 6 mps 733 mmHg 91%
    13:00 +3°C° 0.2 mm 5 mps 732 mmHg 92%
    14:00 +3°C° 0.2 mm 5 mps 731 mmHg 92%
    15:00 +3°C° 1.7 mm 6 mps 730 mmHg 92%
    16:00 +3°C° 1.7 mm 6 mps 730 mmHg 93%
    17:00 +3°C° 1.7 mm 6 mps 729 mmHg 93%
    18:00 +2°C° 0.4 mm 6 mps 729 mmHg 87%
    19:00 +1°C° 0.4 mm 6 mps 730 mmHg 80%
    20:00 -1°C° 0.4 mm 7 mps 730 mmHg 73%
    21:00 -2°C° 0 mm 6 mps 730 mmHg 73%
    22:00 -3°C° 0 mm 6 mps 730 mmHg 73%
    23:00 -3°C° 0 mm 6 mps 730 mmHg 73%

    Day after tomorrow, 22 January, Wednesday

    Time Temperature Precipitation Wind Pressure Humidity
    00:00 -3°C° 0 mm 6 mps 730 mmHg 75%
    01:00 -4°C° 0 mm 6 mps 730 mmHg 77%
    02:00 -4°C° 0 mm 6 mps 730 mmHg 79%
    03:00 -4°C° 0.1 mm 6 mps 729 mmHg 82%
    04:00 -4°C° 0.1 mm 6 mps 728 mmHg 85%
    05:00 -4°C° 0.1 mm 6 mps 728 mmHg 88%
    06:00 -4°C° 0.3 mm 6 mps 727 mmHg 88%
    07:00 -4°C° 0.3 mm 6 mps 726 mmHg 88%
    08:00 -4°C° 0.3 mm 6 mps 726 mmHg 88%
    09:00 -4°C° 0.3 mm 6 mps 726 mmHg 85%
    10:00 -4°C° 0.3 mm 6 mps 725 mmHg 82%
    11:00 -3°C° 0.3 mm 6 mps 725 mmHg 78%
    12:00 -4°C° 0.2 mm 6 mps 725 mmHg 77%
    13:00 -4°C° 0.2 mm 6 mps 725 mmHg 75%
    14:00 -4°C° 0.2 mm 6 mps 725 mmHg 74%
    15:00 -4°C° 0.2 mm 6 mps 726 mmHg 80%
    16:00 -5°C° 0.2 mm 6 mps 726 mmHg 85%
    17:00 -5°C° 0.2 mm 6 mps 726 mmHg 91%
    18:00 -5°C° 0.2 mm 6 mps 727 mmHg 88%
    19:00 -6°C° 0.2 mm 6 mps 728 mmHg 86%
    20:00 -6°C° 0.2 mm 6 mps 728 mmHg 84%
    21:00 -8°C° 0 mm 6 mps 729 mmHg 80%
    22:00 -8°C° 0 mm 6 mps 730 mmHg 77%
    23:00 -9°C° 0 mm 6 mps 731 mmHg 74%

    23 January, Thursday

    Time Temperature Precipitation Wind Pressure Humidity
    00:00 -9°C° 0 mm 6 mps 731 mmHg 74%
    01:00 -9°C° 0 mm 6 mps 732 mmHg 74%
    02:00 -9°C° 0 mm 6 mps 733 mmHg 74%
    03:00 -9°C° 0 mm 6 mps 733 mmHg 70%
    04:00 -9°C° 0 mm 6 mps 734 mmHg 67%
    05:00 -8°C° 0 mm 5 mps 734 mmHg 63%
    06:00 -8°C° 0 mm 5 mps 735 mmHg 61%
    07:00 -8°C° 0 mm 5 mps 735 mmHg 59%
    08:00 -8°C° 0 mm 5 mps 735 mmHg 57%
    09:00 -8°C° 0 mm 6 mps 736 mmHg 59%
    10:00 -8°C° 0 mm 6 mps 736 mmHg 60%
    11:00 -6°C° 0 mm 6 mps 737 mmHg 62%
    12:00 -6°C° 0 mm 6 mps 737 mmHg 59%
    13:00 -6°C° 0 mm 6 mps 738 mmHg 57%
    14:00 -6°C° 0 mm 5 mps 738 mmHg 54%
    15:00 -7°C° 0 mm 5 mps 738 mmHg 56%
    16:00 -8°C° 0 mm 4 mps 739 mmHg 58%
    17:00 -7°C° 0 mm 3 mps 739 mmHg 60%
    18:00 -7°C° 0 mm 3 mps 739 mmHg 62%
    19:00 -6°C° 0 mm 2 mps 739 mmHg 64%
    20:00 -6°C° 0 mm 2 mps 740 mmHg 66%
    21:00 -6°C° 0 mm 2 mps 739 mmHg 71%
    22:00 -5°C° 0 mm 2 mps 739 mmHg 75%
    23:00 -6°C° 0 mm 3 mps 739 mmHg 80%

    24 January, Friday

    Time Temperature Precipitation Wind Pressure Humidity
    00:00 -5°C° 0.1 mm 3 mps 738 mmHg 84%
    01:00 -5°C° 0.1 mm 4 mps 738 mmHg 88%
    02:00 -5°C° 0.1 mm 4 mps 737 mmHg 93%
    03:00 -5°C° 0.3 mm 5 mps 736 mmHg 93%
    04:00 -5°C° 0.3 mm 5 mps 735 mmHg 94%
    05:00 -5°C° 0.3 mm 5 mps 735 mmHg 94%
    06:00 -5°C° 0.4 mm 5 mps 734 mmHg 95%
    07:00 -4°C° 0.4 mm 5 mps 734 mmHg 95%
    08:00 -2°C° 0.4 mm 4 mps 733 mmHg 96%
    09:00 -1°C° 0.1 mm 4 mps 733 mmHg 95%
    10:00 -1°C° 0.1 mm 4 mps 733 mmHg 95%
    11:00 0°C° 0.1 mm 4 mps 733 mmHg 94%
    12:00 +1°C° 0 mm 4 mps 733 mmHg 94%
    13:00 +1°C° 0 mm 4 mps 732 mmHg 94%
    14:00 +1°C° 0 mm 4 mps 732 mmHg 94%
    15:00 +1°C° 0.2 mm 4 mps 732 mmHg 94%
    16:00 +1°C° 0.2 mm 4 mps 732 mmHg 94%
    17:00 +1°C° 0.2 mm 4 mps 732 mmHg 94%
    18:00 +1°C° 0.1 mm 5 mps 732 mmHg 94%
    19:00 +1°C° 0.1 mm 5 mps 732 mmHg 94%
    20:00 +1°C° 0.1 mm 5 mps 731 mmHg 94%
    21:00 +1°C° 0.3 mm 5 mps 731 mmHg 95%
    22:00 +1°C° 0.3 mm 5 mps 731 mmHg 95%
    23:00 0°C° 0.3 mm 4 mps 731 mmHg 96%

    25 January, Saturday

    Time Temperature Precipitation Wind Pressure Humidity
    00:00 0°C° 0.6 mm 4 mps 731 mmHg 96%
    01:00 0°C° 0.6 mm 4 mps 731 mmHg 97%
    02:00 0°C° 0.6 mm 4 mps 731 mmHg 97%
    03:00 0°C° 0.4 mm 4 mps 731 mmHg 97%
    04:00 +1°C° 0.4 mm 3 mps 732 mmHg 97%
    05:00 +1°C° 0.4 mm 3 mps 732 mmHg 97%
    06:00 +1°C° 0.1 mm 3 mps 732 mmHg 97%
    07:00 +1°C° 0.1 mm 3 mps 732 mmHg 97%
    08:00 +1°C° 0.1 mm 3 mps 732 mmHg 97%
    09:00 +2°C° 0.2 mm 2 mps 732 mmHg 97%
    10:00 +2°C° 0.2 mm 2 mps 732 mmHg 97%
    11:00 +2°C° 0.2 mm 2 mps 733 mmHg 97%
    12:00 +2°C° 0.2 mm 2 mps 733 mmHg 97%
    13:00 +2°C° 0.2 mm 2 mps 733 mmHg 97%
    14:00 +2°C° 0.2 mm 2 mps 732 mmHg 97%
    15:00 +2°C° 0.2 mm 2 mps 733 mmHg 97%
    16:00 +2°C° 0.2 mm 2 mps 733 mmHg 97%
    17:00 +2°C° 0.2 mm 2 mps 733 mmHg 97%
    18:00 +2°C° 0.1 mm 2 mps 734 mmHg 97%
    19:00 +1°C° 0.1 mm 2 mps 734 mmHg 97%
    20:00 +1°C° 0.1 mm 2 mps 734 mmHg 97%
    21:00 +1°C° 0 mm 2 mps 734 mmHg 96%
    22:00 -1°C° 0 mm 2 mps 735 mmHg 96%
    23:00 0°C° 0 mm 1 mps 735 mmHg 95%
    Show more